TimeEDT,TemperatureF,Dew PointF,Humidity,Sea Level PressureIn,VisibilityMPH,Wind Direction,Wind SpeedMPH,Gust SpeedMPH,PrecipitationIn,Events,Conditions,WindDirDegrees,DateUTC
6:00 AM,51.8,51.8,100,29.90,4.0,Calm,Calm,-,N/A,Rain,Light Rain,0,2012-10-06 10:00:00
6:47 AM,51.8,51.8,100,29.90,10.0,Calm,Calm,-,N/A,,Overcast,0,2012-10-06 10:47:00
7:07 AM,51.8,51.8,100,29.91,10.0,West,3.5,-,N/A,,Overcast,260,2012-10-06 11:07:00
7:47 AM,48.2,48.2,100,29.93,10.0,WNW,6.9,16.1,N/A,Rain,Light Rain,290,2012-10-06 11:47:00
8:20 AM,48.2,48.2,100,29.94,2.0,WNW,6.9,-,N/A,Rain,Light Rain,290,2012-10-06 12:20:00
8:45 AM,48.2,48.2,100,29.96,1.5,WNW,4.6,-,N/A,,Light Drizzle,290,2012-10-06 12:45:00
8:55 AM,48.2,48.2,100,29.96,0.8,WNW,4.6,-,N/A,Rain,Light Rain,290,2012-10-06 12:55:00
9:10 AM,46.4,46.4,100,29.97,1.0,West,5.8,-,N/A,Rain,Light Rain,280,2012-10-06 13:10:00
10:14 AM,46.4,46.4,100,30.00,10.0,West,5.8,-,N/A,,Overcast,280,2012-10-06 14:14:00
10:47 AM,48.2,46.4,93,30.00,10.0,West,6.9,-,N/A,,Overcast,280,2012-10-06 14:47:00
11:47 AM,48.2,46.4,93,30.01,10.0,West,6.9,-,N/A,,Overcast,270,2012-10-06 15:47:00
12:50 PM,51.8,46.4,82,30.02,10.0,WSW,17.3,-,N/A,,Mostly Cloudy,250,2012-10-06 16:50:00
1:50 PM,53.6,42.8,67,30.01,10.0,WSW,18.4,-,N/A,,Mostly Cloudy,250,2012-10-06 17:50:00
2:50 PM,53.6,39.2,58,30.00,10.0,WSW,16.1,-,N/A,,Scattered Clouds,250,2012-10-06 18:50:00
3:50 PM,55.4,37.4,51,30.00,15.0,West,17.3,-,N/A,,Scattered Clouds,270,2012-10-06 19:50:00
4:50 PM,55.4,37.4,51,29.99,20.0,West,9.2,18.4,N/A,,Scattered Clouds,270,2012-10-06 20:50:00
5:50 PM,55.4,35.6,47,29.99,20.0,West,11.5,-,N/A,,Scattered Clouds,270,2012-10-06 21:50:00
6:50 PM,51.8,37.4,58,30.02,20.0,West,9.2,-,N/A,,Scattered Clouds,270,2012-10-06 22:50:00
7:50 PM,48.2,39.2,71,30.04,20.0,West,6.9,-,N/A,,Scattered Clouds,280,2012-10-06 23:50:00
8:50 PM,46.4,39.2,76,30.06,15.0,Calm,Calm,-,N/A,,Scattered Clouds,0,2012-10-07 00:50:00
9:50 PM,42.8,41.0,93,30.07,15.0,Calm,Calm,-,N/A,,Scattered Clouds,0,2012-10-07 01:50:00